Hourly Data Report for May 27, 2016

LA RONGE RCS
SASKATCHEWAN

55°08'47.020" N
105°16'13.030" W
378.60 m
4064149
71586
XOX

Download Data

Hourly Data (May 2016)
Hourly Data Report for May 27, 2016
TIME Temp Definition
°C
Dew Point Definition
°C
Rel Hum Definition
%
Wind Dir Definition
10's deg

Wind Spd Definition
km/h
Visibility Definition
km
Stn Press Definition
kPa
Hmdx Definition


Wind Chill Definition


Weather Definition


00:00 10.3 5.0 69 6 18   97.00     LegendNANA
01:00 9.5 5.0 73 6 16   97.03     LegendNANA
02:00 8.9 4.6 74 8 15   97.06     LegendNANA
03:00 8.0 4.0 76 8 20   97.08     LegendNANA
04:00 6.4 3.2 80 8 18   97.13     LegendNANA
05:00 5.3 2.7 83 8 19   97.18     LegendNANA
06:00 5.5 2.9 83 8 19   97.21     LegendNANA
07:00 5.8 2.8 81 8 17   97.24     LegendNANA
08:00 6.2 3.1 80 9 18   97.25     LegendNANA
09:00 6.2 2.9 79 9 17   97.28     LegendNANA
10:00 6.5 2.9 78 7 20   97.27     LegendNANA
11:00 7.2 2.9 74 8 23   97.28     LegendNANA
12:00 8.3 3.6 72 6 24   97.26     LegendNANA
13:00 9.3 3.5 67 6 23   97.25     LegendNANA
14:00 10.9 3.6 61 6 21   97.21     LegendNANA
15:00 12.2 3.8 56 7 20   97.18     LegendNANA
16:00 12.3 3.8 56 6 22   97.16     LegendNANA
17:00 13.5 4.7 55 6 20   97.10     LegendNANA
18:00 13.8 3.3 49 8 20   97.09     LegendNANA
19:00 13.4 3.5 51 8 20   97.08     LegendNANA
20:00 12.3 3.2 54 8 18   97.06     LegendNANA
21:00 11.1 3.1 58 8 15   97.11     LegendNANA
22:00 9.7 3.6 66 9 12   97.15     LegendNANA
23:00 9.1 3.6 68 12 15   97.21     LegendNANA

Notes on Data Quality.

Legend

  • E = Estimated
  • M = Missing
  • NA = Not Available*
  • [empty] = Indicates an unobserved value
Date modified: